Time,TemperatureF,DewpointF,PressureIn,WindDirection,WindDirectionDegrees,WindSpeedMPH,WindSpeedGustMPH,Humidity,HourlyPrecipIn,Conditions,Clouds,dailyrainin,SoftwareType,DateUTC
2013-12-05 00:11:00,-1.0,-6.0,-100.00,NNE,14,3.0,3.0,78,0.00,,,0.00,,2013-12-05 07:11:00,
2013-12-05 00:42:00,-3.0,-8.0,-100.00,North,11,5.0,5.0,78,0.00,,,0.00,,2013-12-05 07:42:00,
2013-12-05 01:11:00,-3.0,-8.0,-100.00,North,6,3.0,4.0,77,0.00,,,0.00,,2013-12-05 08:11:00,
2013-12-05 01:42:00,-4.0,-9.0,-100.00,North,6,5.0,5.0,78,0.00,,,0.00,,2013-12-05 08:42:00,
2013-12-05 02:11:00,-2.0,-7.0,-100.00,NNE,17,3.0,4.0,76,0.00,,,0.00,,2013-12-05 09:11:00,
2013-12-05 02:43:00,-1.0,-7.0,-100.00,NNW,332,4.0,4.0,78,0.00,,,0.00,,2013-12-05 09:43:00,
2013-12-05 03:12:00,-1.0,-7.0,-100.00,NW,325,4.0,5.0,76,0.00,,,0.00,,2013-12-05 10:12:00,
2013-12-05 03:30:00,-1.0,-6.0,-100.00,NNW,340,3.0,3.0,79,0.00,,,0.00,,2013-12-05 10:30:00,
2013-12-05 03:43:00,-2.0,-7.0,-100.00,NW,326,5.0,5.0,77,0.00,,,0.00,,2013-12-05 10:43:00,
2013-12-05 04:12:00,-1.0,-6.0,-100.00,NNW,340,3.0,3.0,79,0.00,,,0.00,,2013-12-05 11:12:00,
2013-12-05 04:22:00,-1.0,-6.0,-100.00,NNW,340,3.0,3.0,79,0.00,,,0.00,,2013-12-05 11:22:00,
2013-12-05 04:53:00,0.0,-5.0,-100.00,North,353,4.0,5.0,79,0.00,,,0.00,,2013-12-05 11:53:00,
2013-12-05 05:02:00,0.0,-5.0,-100.00,North,353,4.0,5.0,79,0.00,,,0.00,,2013-12-05 12:02:00,
2013-12-05 05:21:00,1.0,-4.0,-100.00,NNW,342,7.0,8.0,78,0.00,,,0.00,,2013-12-05 12:21:00,
2013-12-05 05:32:00,1.0,-4.0,-100.00,NNW,342,7.0,8.0,78,0.00,,,0.00,,2013-12-05 12:32:00,
2013-12-05 05:52:00,2.0,-4.0,-100.00,NNW,344,7.0,9.0,78,0.00,,,0.00,,2013-12-05 12:52:00,
2013-12-05 06:02:00,2.0,-4.0,-100.00,NNW,344,7.0,9.0,78,0.00,,,0.00,,2013-12-05 13:02:00,
2013-12-05 06:21:00,0.0,-4.0,-100.00,North,349,6.0,6.0,81,0.00,,,0.00,,2013-12-05 13:21:00,
2013-12-05 06:32:00,0.0,-4.0,-100.00,North,349,6.0,6.0,81,0.00,,,0.00,,2013-12-05 13:32:00,
2013-12-05 06:52:00,0.0,-4.0,-100.00,NNW,344,6.0,7.0,82,0.00,,,0.00,,2013-12-05 13:52:00,
2013-12-05 07:02:00,0.0,-4.0,-100.00,NNW,344,6.0,7.0,82,0.00,,,0.00,,2013-12-05 14:02:00,
2013-12-05 07:22:00,0.0,-4.0,-100.00,North,349,4.0,5.0,84,0.00,,,0.00,,2013-12-05 14:22:00,
2013-12-05 07:32:00,0.0,-4.0,-100.00,North,349,4.0,5.0,84,0.00,,,0.00,,2013-12-05 14:32:00,
2013-12-05 07:52:00,-2.0,-6.0,-100.00,North,8,4.0,5.0,84,0.00,,,0.00,,2013-12-05 14:52:00,
2013-12-05 08:02:00,-2.0,-6.0,-100.00,North,8,4.0,5.0,84,0.00,,,0.00,,2013-12-05 15:02:00,
2013-12-05 08:22:00,-4.0,-7.0,-100.00,NW,313,4.0,4.0,83,0.00,,,0.00,,2013-12-05 15:22:00,
2013-12-05 08:33:00,-4.0,-7.0,-100.00,NW,313,4.0,4.0,83,0.00,,,0.00,,2013-12-05 15:33:00,
2013-12-05 08:54:00,-2.0,-6.0,-100.00,NNW,330,4.0,5.0,84,0.00,,,0.00,,2013-12-05 15:54:00,
2013-12-05 09:04:00,-2.0,-6.0,-100.00,NNW,330,4.0,5.0,84,0.00,,,0.00,,2013-12-05 16:04:00,
2013-12-05 09:23:00,0.0,-5.0,-100.00,NNW,337,6.0,8.0,81,0.00,,,0.00,,2013-12-05 16:23:00,
2013-12-05 09:33:00,0.0,-5.0,-100.00,NNW,337,6.0,8.0,81,0.00,,,0.00,,2013-12-05 16:33:00,
2013-12-05 09:53:00,2.0,-4.0,-100.00,North,356,9.0,10.0,76,0.00,,,0.00,,2013-12-05 16:53:00,
2013-12-05 10:02:00,2.0,-4.0,-100.00,North,356,9.0,10.0,76,0.00,,,0.00,,2013-12-05 17:02:00,
2013-12-05 10:23:00,6.0,-2.0,-100.00,NNE,14,9.0,10.0,71,0.00,,,0.00,,2013-12-05 17:23:00,
2013-12-05 10:33:00,6.0,-2.0,-100.00,NNE,14,9.0,10.0,71,0.00,,,0.00,,2013-12-05 17:33:00,
2013-12-05 10:52:00,6.0,-2.0,-100.00,NNE,31,7.0,10.0,70,0.00,,,0.00,,2013-12-05 17:52:00,
2013-12-05 11:02:00,6.0,-2.0,-100.00,NNE,31,7.0,10.0,70,0.00,,,0.00,,2013-12-05 18:02:00,
2013-12-05 11:22:00,8.0,-1.0,-100.00,North,354,5.0,6.0,65,0.00,,,0.00,,2013-12-05 18:22:00,
2013-12-05 11:33:00,8.0,-1.0,-100.00,North,354,5.0,6.0,65,0.00,,,0.00,,2013-12-05 18:33:00,
2013-12-05 11:52:00,9.0,0.0,-100.00,NNE,20,4.0,6.0,65,0.00,,,0.00,,2013-12-05 18:52:00,
2013-12-05 12:02:00,9.0,0.0,-100.00,NNE,20,4.0,6.0,65,0.00,,,0.00,,2013-12-05 19:02:00,
2013-12-05 12:12:00,9.0,0.0,-100.00,NNE,20,4.0,6.0,65,0.00,,,0.00,,2013-12-05 19:12:00,
2013-12-05 12:42:00,10.0,2.0,-100.00,ENE,61,4.0,6.0,67,0.00,,,0.00,,2013-12-05 19:42:00,
2013-12-05 13:11:00,11.0,3.0,-100.00,North,8,0.0,0.0,68,0.00,,,0.00,,2013-12-05 20:11:00,
2013-12-05 13:42:00,14.0,3.0,-100.00,North,10,0.0,4.0,61,0.00,,,0.00,,2013-12-05 20:42:00,
2013-12-05 14:12:00,15.0,4.0,-100.00,North,349,1.0,4.0,62,0.00,,,0.00,,2013-12-05 21:12:00,
2013-12-05 14:44:00,14.0,3.0,-100.00,WSW,256,2.0,4.0,63,0.00,,,0.00,,2013-12-05 21:44:00,
2013-12-05 15:13:00,13.0,2.0,-100.00,SW,216,6.0,9.0,62,0.00,,,0.00,,2013-12-05 22:13:00,
2013-12-05 15:42:00,13.0,1.0,-100.00,WSW,246,5.0,7.0,60,0.00,,,0.00,,2013-12-05 22:42:00,
2013-12-05 16:12:00,13.0,3.0,-100.00,SW,232,10.0,11.0,63,0.00,,,0.00,,2013-12-05 23:12:00,
2013-12-05 16:22:00,13.0,3.0,-100.00,SW,232,10.0,11.0,63,0.00,,,0.00,,2013-12-05 23:22:00,
2013-12-05 16:43:00,12.0,4.0,-100.00,SSW,199,3.0,5.0,70,0.00,,,0.00,,2013-12-05 23:43:00,
2013-12-05 17:11:00,12.0,5.0,-100.00,SSW,192,2.0,4.0,72,0.00,,,0.00,,2013-12-06 00:11:00,
2013-12-05 17:21:00,12.0,5.0,-100.00,SSW,192,2.0,4.0,72,0.00,,,0.00,,2013-12-06 00:21:00,
2013-12-05 17:42:00,11.0,5.0,-100.00,South,172,1.0,4.0,75,0.00,,,0.00,,2013-12-06 00:42:00,
2013-12-05 18:11:00,10.0,5.0,-100.00,SE,126,2.0,3.0,81,0.00,,,0.00,,2013-12-06 01:11:00,
2013-12-05 18:42:00,9.0,6.0,-100.00,SE,141,1.0,1.0,87,0.00,,,0.00,,2013-12-06 01:42:00,
2013-12-05 19:11:00,8.0,5.0,-100.00,SE,145,3.0,4.0,88,0.00,,,0.00,,2013-12-06 02:11:00,
2013-12-05 19:22:00,8.0,5.0,-100.00,SE,145,3.0,4.0,88,0.00,,,0.00,,2013-12-06 02:22:00,
2013-12-05 19:42:00,8.0,6.0,-100.00,South,174,3.0,4.0,91,0.00,,,0.00,,2013-12-06 02:42:00,
2013-12-05 20:11:00,7.0,4.0,-100.00,SW,216,0.0,0.0,91,0.00,,,0.00,,2013-12-06 03:11:00,
2013-12-05 20:43:00,5.0,3.0,-100.00,WSW,256,0.0,0.0,92,0.00,,,0.00,,2013-12-06 03:43:00,
2013-12-05 21:13:00,0.0,-4.0,-100.00,NW,309,3.0,4.0,85,0.00,,,0.00,,2013-12-06 04:13:00,
2013-12-05 21:43:00,-1.0,-4.0,-100.00,North,352,2.0,3.0,85,0.00,,,0.00,,2013-12-06 04:43:00,
2013-12-05 22:13:00,-1.0,-5.0,-100.00,NNW,337,4.0,5.0,86,0.00,,,0.00,,2013-12-06 05:13:00,
2013-12-05 22:43:00,-1.0,-4.0,-100.00,NNW,347,3.0,4.0,87,0.00,,,0.00,,2013-12-06 05:43:00,
2013-12-05 23:12:00,-2.0,-5.0,-100.00,NW,312,5.0,6.0,86,0.00,,,0.00,,2013-12-06 06:12:00,
2013-12-05 23:42:00,-3.0,-6.0,-100.00,NNW,336,4.0,4.0,87,0.00,,,0.00,,2013-12-06 06:42:00,